BEIDOU-2 G7

Last updated on Tue Sep 16 2025 00:02:48 GMT+0000 (Coordinated Universal Time)

1 41586U 16037A 25258.60650271 -.00000369 00000+0 00000+0 0 9997 2 41586 1.5377 66.5315 0004927 347.8159 269.2854 1.00266254 4134
UTC large
Height (km)
Speed (km/s)
/
Latitude / Longitude
Inclination (degrees)
Orbital Period (minutes)
Azimuth
Elevation
Range (km)
Doppler Factor

Next 0 passes for location: London (51.5072 / 0.1276)

Sorry there are no passes over London.